Location: *
(47.6569°N, 7.4256°E)
Time: 23:51:14
(UTC+00:00)

IRIDIUM 114 - Pass Details

Date: 14 December 2019
Orbit: 776 x 779 km, 86.4° (Epoch: 24 January)

Event Time Altitude Azimuth Distance (km) Brightness Sun altitude
Rises 18:21:06 0° 186° (S) 3,249 7.7 -26.2°
Reaches altitude 10° 18:23:26 10° 188° (S) 2,326 6.9 -26.6°
Maximum altitude 18:28:39 76° 274° (W) 808 4.4 -27.5°
Enters shadow 18:30:07 48° 348° (NNW) 1,018 4.9 -27.7°
